Showing default

VANGUARD 2, 11

Orbit data source: Space-Track

VANGUARD 2, 11 is a payload satellite owned by NASA BSC (US) in LEO that was launched on Tue, 17 Feb 1959 UTC via a VANGUARD launch vehicle from the Air Force Eastern Test Range (AFETR). Payload-class satellites include a variety of spacecraft equipped with specific instruments for various scientific and technological missions. These include communications satellites like Starlink; space stations such as the ISS; scientific satellites like the Hubble; Earth observation satellites from companies like Planet Labs, Umbra, and HawkEye 360; GPS; miniature CubeSats for education and research; and military/defense satellites.

Loading next visibility...
Identifier
11, 1959-001A
Orbit
LEO
Country
Flag of USUS
Related business
Manufacturer
NRL
Mission
Spacecraft
Bus & Motor
NRL 20", Unknown motor
Mass
10 kg wet, 10 kg dry
Launch date (UTC)
1959-02-17 (67 years ago)
Launch vehicle
VANGUARD
Launch site
Air Force Eastern Test Range (AFETR)
Object type
Payload
Rocket body
Debris
Shape & HBR
Unknown
Radar Cross Section
Medium (>0.1 m² and <1 m²)

Expand to show TLE details & history
Last TLE update: 9 hours ago

TLE from 9 hours ago
0 VANGUARD 2
1    11U 59001A   25307.77202964  .00000506  00000-0  24620-3 0  9999
2    11  32.8715 218.0308 1448249 214.4512 135.3281 11.90098654508608
Epoch: 2025-11-03T18:31Z
TLE epoch observation values (Epoch: 2025-11-03T18:31:43.360Z)
Latitude
0.00001°
Longitude
-103.16846°
Altitude
2,630.938 km
Speed
6.271 km/s
True Right ascension
14h 32m 07s
True Declination
0° 00' 00"
Sunlit
Object was in daylight at epoch
Visualization orbit readout
Latitude
Unknown
Longitude
Unknown
Altitude
Unknown
Speed
Unknown
Apparent Right ascension
Unknown
Apparent Declination
Unknown
Sunlit
N/A
Visualization observer readout
Local Sidereal Time
23:48:01
Azimuth
Unknown
Elevation
Unknown
Doppler factor
Unknown
Orbital elements
Apogee altitude
2,902.697 km
Perigee altitude
554.573 km
Semi-major axis
8,106.772 km
Eccentricity
0.14482
Inclination
32.8715°
RAAN
218.0308°
Arg. of periapsis
214.4512°
True anomaly
145.60564°
Mean anomaly
135.3281°
Eccentric anomaly
140.59551°
Mean motion
2.97352 °/min
Orbital period
121.07 mins
BSTAR
0.0002462
Loading maneuver chart data...
Computing Atmospheric mass density...
Loading historical data...
Loading historical data...
Loading historical data...
Loading historical data...
Loading historical data...
Loading historical data...
Loading historical data...
Other satellites on launch #1 in the year 1959 (1959-02-17 UTC)

Documentation

Showing up to 5 results
|